QPF
0.00 0.01 0.02 0.01 0.01 0.01 0.01 0.01 0.00 0.00 0.00 0.00 0.00 0.00 0.00 0.00 0.00 0.00 0.00 0.00 0.00 0.00 0.00 0.00 0.00 0.00 0.00 0.00 0.00 0.00 0.00 0.00 0.00 0.00 0.00 0.00 0.00 0.00 0.00 0.00 0.00 0.00 0.00 0.00 0.00 0.00 0.00 0.00 0.00 0.00 0.00 0.00 0.00 0.00 0.00 0.00 0.00 0.00 0.00 0.02 0.02 0.02 0.01
0.00 0.01 0.01 0.01 0.00 0.00 0.01 0.00 0.00 0.00 0.00 0.00 0.00 0.00 0.00 0.00 0.00 0.00 0.00 0.00 0.00 0.00 0.00 0.00 0.00 0.00 0.00 0.00 0.00 0.00 0.00 0.00 0.00 0.00 0.00 0.00 0.00 0.00 0.00 0.00 0.00 0.00 0.00 0.00 0.00 0.00 0.00 0.00 0.00 0.00 0.00 0.00 0.00 0.00 0.00 0.00 0.00 0.00 0.00 0.00 0.01 0.01 0.02
0.00 0.00 0.00 0.00 0.00 0.00 0.00 0.00 0.00 0.00 0.00 0.00 0.00 0.00 0.00 0.00 0.00 0.00 0.00 0.00 0.00 0.00 0.00 0.00 0.00 0.00 0.00 0.00 0.00 0.00 0.00 0.00 0.00 0.00 0.00 0.00 0.00 0.00 0.00 0.00 0.00 0.00 0.00 0.00 0.00 0.00 0.00 0.00 0.00 0.00 0.00 0.00 0.00 0.00 0.00 0.00 0.00 0.00 0.00 0.00 0.00 0.00 0.01
0.00 0.00 0.00 0.00 0.00 0.00 0.00 0.00 0.00 0.00 0.00 0.00 0.00 0.00 0.00 0.00 0.00 0.00 0.00 0.00 0.00 0.00 0.00 0.00 0.00 0.00 0.00 0.00 0.00 0.00 0.00 0.00 0.00 0.00 0.00 0.00 0.00 0.00 0.00 0.00 0.00 0.00 0.00 0.00 0.00 0.00 0.00 0.00 0.00 0.00 0.00 0.00 0.00 0.00 0.00 0.00 0.00 0.00 0.00 0.00 0.00 0.00 0.01
0.00 0.00 0.00 0.00 0.00 0.00 0.00 0.00 0.00 0.00 0.00 0.00 0.00 0.00 0.00 0.00 0.00 0.00 0.00 0.00 0.00 0.00 0.00 0.00 0.00 0.00 0.00 0.00 0.00 0.00 0.00 0.00 0.00 0.00 0.00 0.00 0.00 0.00 0.00 0.00 0.00 0.00 0.00 0.00 0.00 0.00 0.00 0.00 0.00 0.00 0.00 0.00 0.00 0.00 0.00 0.00 0.00 0.00 0.00 0.00 0.00 0.00 0.00
0.00 0.00 0.00 0.00 0.00 0.00 0.00 0.00 0.00 0.00 0.00 0.00 0.00 0.00 0.00 0.00 0.00 0.00 0.00 0.00 0.00 0.00 0.00 0.00 0.00 0.00 0.00 0.00 0.00 0.00 0.00 0.00 0.00 0.00 0.00 0.00 0.00 0.00 0.00 0.00 0.00 0.00 0.00 0.00 0.00 0.00 0.00 0.00 0.00 0.00 0.00 0.00 0.00 0.00 0.00 0.00 0.00 0.00 0.00 0.00 0.00 0.00 0.00
0.00 0.00 0.00 0.00 0.00 0.00 0.00 0.00 0.00 0.00 0.00 0.00 0.00 0.00 0.00 0.00 0.00 0.00 0.00 0.00 0.00 0.00 0.00 0.00 0.00 0.00 0.00 0.00 0.00 0.00 0.00 0.00 0.00 0.00 0.00 0.00 0.00 0.00 0.00 0.00 0.00 0.00 0.00 0.00 0.00 0.00 0.00 0.00 0.00 0.00 0.00 0.00 0.00 0.00 0.00 0.00 0.00 0.00 0.00 0.00 0.00 0.00 0.00
0.00 0.00 0.00 0.00 0.00 0.00 0.00 0.00 0.00 0.00 0.00 0.00 0.00 0.00 0.00 0.00 0.00 0.00 0.00 0.00 0.00 0.00 0.00 0.00 0.00 0.00 0.00 0.00 0.00 0.00 0.00 0.00 0.00 0.00 0.00 0.00 0.00 0.00 0.00 0.00 0.00 0.00 0.00 0.00 0.00 0.00 0.00 0.00 0.00 0.00 0.00 0.00 0.00 0.00 0.00 0.00 0.00 0.00 0.00 0.00 0.00 0.00 0.00
0.00 0.00 0.00 0.00 0.00 0.00 0.00 0.00 0.00 0.00 0.00 0.00 0.00 0.00 0.00 0.00 0.00 0.00 0.00 0.00 0.00 0.00 0.00 0.00 0.00 0.00 0.00 0.00 0.00 0.00 0.00 0.00 0.00 0.00 0.00 0.00 0.00 0.00 0.00 0.00 0.00 0.00 0.00 0.00 0.00 0.00 0.00 0.00 0.00 0.00 0.00 0.00 0.00 0.00 0.00 0.00 0.00 0.00 0.00 0.00 0.00 0.00 0.00
0.00 0.00 0.00 0.00 0.00 0.00 0.00 0.00 0.00 0.00 0.00 0.00 0.00 0.00 0.00 0.00 0.00 0.00 0.00 0.00 0.00 0.00 0.00 0.00 0.00 0.00 0.00 0.00 0.00 0.00 0.00 0.00 0.00 0.00 0.00 0.00 0.00 0.00 0.00 0.00 0.00 0.00 0.00 0.00 0.00 0.00 0.00 0.00 0.00 0.00 0.00 0.00 0.00 0.00 0.00 0.00 0.00 0.00 0.00 0.00 0.00 0.00 0.00
0.00 0.00 0.00 0.00 0.00 0.00 0.00 0.00 0.00 0.00 0.00 0.00 0.00 0.00 0.00 0.00 0.00 0.00 0.00 0.00 0.00 0.00 0.00 0.00 0.00 0.00 0.00 0.00 0.00 0.00 0.00 0.00 0.00 0.00 0.00 0.00 0.00 0.00 0.00 0.00 0.00 0.00 0.00 0.00 0.00 0.00 0.00 0.00 0.00 0.00 0.00 0.00 0.00 0.00 0.00 0.00 0.00 0.00 0.00 0.00 0.00 0.01 0.01
0.00 0.00 0.00 0.00 0.00 0.00 0.00 0.00 0.00 0.00 0.00 0.00 0.00 0.00 0.00 0.00 0.00 0.00 0.00 0.00 0.00 0.00 0.00 0.00 0.00 0.00 0.00 0.00 0.00 0.00 0.00 0.00 0.00 0.00 0.00 0.00 0.00 0.00 0.00 0.00 0.00 0.00 0.00 0.00 0.00 0.00 0.00 0.00 0.00 0.00 0.00 0.00 0.00 0.00 0.00 0.00 0.00 0.00 0.00 0.01 0.01 0.01 0.02
0.00 0.00 0.00 0.00 0.00 0.00 0.00 0.00 0.00 0.00 0.00 0.00 0.00 0.00 0.00 0.00 0.00 0.00 0.00 0.00 0.00 0.00 0.00 0.00 0.00 0.00 0.00 0.00 0.00 0.00 0.00 0.00 0.00 0.00 0.00 0.00 0.00 0.00 0.00 0.00 0.00 0.00 0.01 0.00 0.00 0.00 0.00 0.00 0.00 0.00 0.00 0.00 0.00 0.00 0.00 0.00 0.00 0.01 0.01 0.01 0.01 0.01 0.01
0.00 0.00 0.00 0.00 0.00 0.00 0.00 0.00 0.00 0.00 0.00 0.00 0.00 0.00 0.00 0.00 0.00 0.00 0.00 0.00 0.00 0.00 0.00 0.00 0.00 0.00 0.00 0.00 0.00 0.00 0.00 0.00 0.00 0.00 0.00 0.00 0.00 0.00 0.00 0.00 0.01 0.01 0.01 0.01 0.00 0.00 0.00 0.00 0.00 0.00 0.00 0.00 0.00 0.00 0.00 0.00 0.00 0.00 0.00 0.00 0.01 0.02 0.03
0.00 0.00 0.00 0.00 0.00 0.00 0.00 0.00 0.00 0.00 0.00 0.00 0.00 0.00 0.00 0.00 0.00 0.00 0.00 0.00 0.00 0.00 0.00 0.00 0.00 0.00 0.00 0.00 0.00 0.00 0.00 0.00 0.00 0.00 0.00 0.00 0.00 0.00 0.01 0.01 0.02 0.03 0.02 0.01 0.01 0.00 0.00 0.00 0.00 0.00 0.00 0.00 0.00 0.00 0.00 0.00 0.00 0.00 0.00 0.00 0.03 0.02 0.03
0.00 0.00 0.00 0.00 0.00 0.00 0.00 0.00 0.00 0.00 0.00 0.00 0.00 0.00 0.00 0.00 0.00 0.00 0.00 0.00 0.00 0.00 0.00 0.00 0.00 0.00 0.00 0.00 0.00 0.00 0.00 0.00 0.00 0.00 0.00 0.01 0.01 0.00 0.01 0.01 0.02 0.02 0.01 0.01 0.00 0.00 0.00 0.00 0.01 0.01 0.01 0.00 0.00 0.00 0.00 0.00 0.00 0.00 0.00 0.01 0.01 0.02 0.02
0.00 0.00 0.00 0.00 0.00 0.00 0.00 0.00 0.00 0.00 0.00 0.00 0.00 0.00 0.00 0.00 0.00 0.00 0.00 0.00 0.00 0.00 0.00 0.00 0.00 0.00 0.00 0.00 0.00 0.00 0.00 0.00 0.00 0.00 0.01 0.01 0.01 0.00 0.00 0.01 0.01 0.01 0.01 0.01 0.01 0.01 0.00 0.01 0.01 0.01 0.00 0.00 0.00 0.00 0.00 0.00 0.00 0.00 0.00 0.00 0.00 0.00 0.02
0.00 0.00 0.00 0.00 0.00 0.00 0.00 0.00 0.00 0.00 0.00 0.00 0.00 0.00 0.00 0.00 0.00 0.00 0.00 0.00 0.00 0.00 0.00 0.00 0.00 0.00 0.00 0.00 0.00 0.00 0.00 0.00 0.00 0.01 0.01 0.01 0.01 0.01 0.01 0.01 0.01 0.01 0.01 0.01 0.01 0.00 0.00 0.00 0.00 0.00 0.01 0.00 0.00 0.00 0.00 0.00 0.00 0.00 0.00 0.00 0.00 0.00 0.01
0.00 0.00 0.00 0.00 0.00 0.00 0.00 0.00 0.00 0.00 0.00 0.00 0.00 0.00 0.00 0.00 0.00 0.00 0.00 0.00 0.00 0.00 0.00 0.00 0.00 0.00 0.00 0.00 0.01 0.00 0.00 0.01 0.01 0.01 0.01 0.01 0.01 0.01 0.01 0.01 0.00 0.00 0.00 0.00 0.00 0.00 0.00 0.00 0.00 0.00 0.00 0.00 0.00 0.00 0.00 0.00 0.00 0.00 0.00 0.00 0.00 0.00 0.00
0.01 0.00 0.00 0.00 0.00 0.00 0.00 0.00 0.00 0.00 0.00 0.00 0.00 0.00 0.00 0.00 0.00 0.00 0.00 0.00 0.00 0.00 0.00 0.00 0.00 0.00 0.00 0.01 0.01 0.00 0.00 0.01 0.01 0.00 0.00 0.00 0.00 0.00 0.00 0.00 0.00 0.00 0.00 0.00 0.00 0.00 0.00 0.00 0.00 0.00 0.00 0.00 0.00 0.00 0.00 0.00 0.00 0.00 0.00 0.00 0.00 0.00 0.00
0.00 0.00 0.00 0.00 0.00 0.00 0.00 0.00 0.00 0.00 0.00 0.00 0.00 0.00 0.00 0.00 0.00 0.00 0.00 0.00 0.00 0.00 0.00 0.00 0.00 0.00 0.00 0.00 0.00 0.01 0.01 0.00 0.00 0.00 0.00 0.00 0.00 0.01 0.00 0.00 0.00 0.00 0.00 0.00 0.00 0.00 0.00 0.00 0.00 0.00 0.00 0.00 0.00 0.00 0.00 0.00 0.00 0.00 0.00 0.00 0.00 0.00 0.00
0.00 0.00 0.00 0.00 0.00 0.00 0.00 0.00 0.00 0.00 0.00 0.00 0.00 0.00 0.00 0.00 0.00 0.00 0.00 0.00 0.00 0.00 0.00 0.01 0.00 0.00 0.00 0.00 0.01 0.01 0.00 0.00 0.00 0.00 0.01 0.01 0.01 0.00 0.00 0.00 0.00 0.00 0.00 0.00 0.00 0.00 0.00 0.00 0.00 0.00 0.00 0.00 0.00 0.00 0.00 0.00 0.00 0.00 0.00 0.00 0.00 0.00 0.00
0.00 0.00 0.00 0.00 0.00 0.00 0.00 0.00 0.00 0.00 0.00 0.00 0.00 0.00 0.00 0.00 0.00 0.00 0.00 0.00 0.00 0.00 0.00 0.00 0.00 0.00 0.00 0.00 0.01 0.00 0.00 0.00 0.00 0.01 0.01 0.01 0.00 0.01 0.00 0.00 0.00 0.00 0.00 0.00 0.00 0.00 0.00 0.00 0.00 0.00 0.00 0.00 0.00 0.00 0.00 0.00 0.00 0.00 0.00 0.00 0.00 0.00 0.00
0.00 0.00 0.00 0.00 0.00 0.00 0.00 0.00 0.00 0.00 0.00 0.00 0.00 0.00 0.00 0.00 0.00 0.02 0.00 0.00 0.00 0.00 0.00 0.00 0.00 0.00 0.00 0.00 0.01 0.00 0.00 0.00 0.00 0.00 0.00 0.00 0.00 0.00 0.00 0.00 0.00 0.00 0.00 0.00 0.00 0.00 0.00 0.00 0.00 0.00 0.00 0.00 0.00 0.00 0.00 0.00 0.00 0.00 0.00 0.00 0.00 0.00 0.00
0.00 0.00 0.00 0.00 0.00 0.00 0.00 0.00 0.00 0.00 0.00 0.00 0.00 0.00 0.00 0.00 0.00 0.01 0.00 0.00 0.00 0.00 0.00 0.00 0.00 0.00 0.00 0.00 0.00 0.00 0.00 0.00 0.00 0.00 0.00 0.00 0.00 0.00 0.00 0.00 0.00 0.00 0.00 0.00 0.00 0.00 0.00 0.00 0.00 0.00 0.00 0.00 0.00 0.00 0.00 0.00 0.00 0.00 0.00 0.00 0.00 0.00 0.00
0.00 0.00 0.00 0.00 0.00 0.00 0.00 0.00 0.00 0.00 0.00 0.00 0.00 0.00 0.00 0.00 0.00 0.00 0.00 0.00 0.00 0.00 0.00 0.00 0.00 0.00 0.00 0.00 0.00 0.00 0.00 0.00 0.00 0.00 0.00 0.00 0.00 0.00 0.00 0.00 0.00 0.00 0.00 0.00 0.00 0.00 0.00 0.00 0.00 0.00 0.00 0.00 0.00 0.00 0.00 0.00 0.00 0.00 0.00 0.00 0.00 0.00 0.01
0.00 0.00 0.00 0.00 0.00 0.00 0.00 0.00 0.00 0.00 0.00 0.00 0.00 0.00 0.00 0.00 0.00 0.00 0.00 0.00 0.00 0.00 0.00 0.00 0.00 0.00 0.00 0.00 0.00 0.00 0.00 0.00 0.00 0.00 0.00 0.00 0.00 0.00 0.00 0.00 0.00 0.00 0.00 0.00 0.00 0.00 0.00 0.00 0.00 0.00 0.00 0.00 0.00 0.00 0.00 0.01 0.01 0.01 0.00 0.00 0.00 0.00 0.00
0.00 0.00 0.00 0.00 0.00 0.00 0.00 0.00 0.00 0.00 0.00 0.00 0.00 0.00 0.00 0.00 0.00 0.00 0.00 0.00 0.00 0.00 0.00 0.00 0.00 0.00 0.00 0.00 0.00 0.00 0.00 0.00 0.00 0.00 0.00 0.00 0.00 0.00 0.00 0.00 0.00 0.00 0.00 0.00 0.00 0.00 0.00 0.00 0.00 0.00 0.00 0.00 0.00 0.00 0.01 0.00 0.00 0.01 0.00 0.00 0.00 0.00 0.00
0.00 0.00 0.00 0.00 0.00 0.00 0.00 0.00 0.00 0.00 0.00 0.00 0.00 0.00 0.00 0.00 0.00 0.00 0.00 0.00 0.00 0.00 0.00 0.00 0.00 0.00 0.00 0.00 0.00 0.00 0.00 0.00 0.00 0.00 0.00 0.00 0.00 0.00 0.00 0.00 0.00 0.00 0.00 0.00 0.00 0.01 0.00 0.00 0.00 0.01 0.01 0.01 0.00 0.00 0.01 0.01 0.03 0.02 0.03 0.01 0.00 0.00 0.00
0.00 0.00 0.00 0.00 0.00 0.00 0.00 0.00 0.00 0.00 0.00 0.00 0.00 0.00 0.00 0.00 0.00 0.00 0.00 0.00 0.00 0.00 0.00 0.00 0.00 0.00 0.00 0.00 0.00 0.00 0.00 0.00 0.00 0.00 0.00 0.00 0.00 0.00 0.00 0.00 0.00 0.00 0.00 0.00 0.01 0.01 0.01 0.01 0.01 0.01 0.02 0.01 0.01 0.01 0.01 0.02 0.01 0.01 0.01 0.01 0.00 0.00 0.00
0.00 0.00 0.00 0.00 0.00 0.00 0.00 0.00 0.00 0.00 0.00 0.00 0.00 0.00 0.00 0.00 0.00 0.00 0.00 0.00 0.00 0.00 0.00 0.00 0.00 0.00 0.00 0.00 0.00 0.00 0.00 0.00 0.00 0.00 0.00 0.00 0.00 0.00 0.00 0.00 0.00 0.00 0.00 0.00 0.00 0.01 0.02 0.01 0.02 0.02 0.02 0.02 0.01 0.01 0.01 0.01 0.01 0.02 0.02 0.00 0.00 0.00 0.00
0.00 0.00 0.00 0.00 0.00 0.00 0.00 0.00 0.00 0.00 0.00 0.00 0.00 0.00 0.00 0.00 0.00 0.00 0.00 0.00 0.00 0.00 0.00 0.00 0.00 0.00 0.00 0.00 0.00 0.00 0.00 0.00 0.00 0.00 0.00 0.00 0.00 0.00 0.00 0.00 0.00 0.00 0.00 0.00 0.01 0.01 0.01 0.02 0.02 0.02 0.02 0.01 0.03 0.02 0.01 0.01 0.01 0.01 0.01 0.00 0.01 0.01 0.02
0.00 0.00 0.00 0.00 0.00 0.00 0.00 0.00 0.00 0.00 0.00 0.00 0.00 0.00 0.00 0.00 0.00 0.00 0.00 0.00 0.00 0.00 0.00 0.00 0.00 0.00 0.00 0.00 0.00 0.00 0.00 0.00 0.00 0.00 0.00 0.00 0.00 0.00 0.00 0.00 0.00 0.00 0.00 0.00 0.01 0.01 0.01 0.02 0.01 0.02 0.02 0.02 0.02 0.02 0.01 0.01 0.01 0.01 0.01 0.04 0.04 0.02 0.02
0.00 0.00 0.00 0.00 0.00 0.00 0.00 0.00 0.00 0.00 0.00 0.00 0.00 0.00 0.00 0.00 0.00 0.00 0.00 0.00 0.00 0.00 0.00 0.00 0.00 0.00 0.00 0.00 0.00 0.00 0.00 0.00 0.00 0.00 0.00 0.00 0.00 0.00 0.00 0.00 0.00 0.00 0.00 0.00 0.01 0.02 0.02 0.02 0.02 0.02 0.03 0.02 0.01 0.01 0.01 0.01 0.01 0.01 0.03 0.02 0.01 0.00 0.01
0.00 0.00 0.00 0.00 0.00 0.00 0.00 0.00 0.00 0.00 0.00 0.00 0.00 0.00 0.00 0.00 0.00 0.00 0.00 0.00 0.00 0.00 0.00 0.00 0.00 0.00 0.00 0.00 0.00 0.00 0.00 0.00 0.00 0.00 0.00 0.00 0.00 0.00 0.00 0.00 0.00 0.00 0.00 0.00 0.00 0.01 0.02 0.01 0.03 0.01 0.02 0.02 0.02 0.02 0.01 0.01 0.01 0.02 0.00 0.00 0.00 0.00 0.00
0.00 0.00 0.00 0.00 0.00 0.00 0.00 0.00 0.00 0.00 0.00 0.00 0.00 0.00 0.00 0.00 0.00 0.00 0.00 0.00 0.00 0.00 0.00 0.00 0.00 0.00 0.00 0.00 0.00 0.00 0.00 0.00 0.00 0.00 0.00 0.00 0.00 0.00 0.00 0.00 0.00 0.00 0.00 0.00 0.00 0.00 0.00 0.00 0.01 0.00 0.00 0.01 0.00 0.02 0.06 0.04 0.02 0.00 0.00 0.00 0.00 0.00 0.00
0.00 0.00 0.00 0.00 0.00 0.00 0.00 0.00 0.00 0.00 0.00 0.00 0.00 0.00 0.00 0.00 0.00 0.00 0.00 0.00 0.00 0.00 0.00 0.00 0.00 0.00 0.00 0.00 0.00 0.00 0.00 0.00 0.00 0.00 0.00 0.00 0.00 0.00 0.00 0.00 0.00 0.00 0.00 0.00 0.00 0.00 0.00 0.00 0.00 0.00 0.00 0.00 0.00 0.00 0.00 0.00 0.00 0.00 0.00 0.00 0.00 0.00 0.00
0.00 0.00 0.00 0.00 0.00 0.00 0.00 0.00 0.00 0.00 0.00 0.00 0.00 0.00 0.00 0.00 0.00 0.00 0.00 0.00 0.00 0.00 0.00 0.00 0.00 0.00 0.00 0.00 0.00 0.00 0.00 0.00 0.00 0.00 0.00 0.00 0.00 0.00 0.00 0.01 0.00 0.00 0.00 0.00 0.00 0.00 0.00 0.00 0.00 0.00 0.00 0.00 0.02 0.03 0.02 0.00 0.00 0.00 0.00 0.00 0.00 0.00 0.00
MSLP
1010.98 1011.42 1011.80 1011.98 1012.40 1012.70 1012.88 1013.02 1013.10 1013.32 1013.52 1013.70 1013.74 1013.86 1014.02 1014.14 1014.26 1014.40 1014.54 1014.66 1014.90 1015.08 1015.00 1014.98 1015.06 1015.08 1015.22 1015.22 1015.28 1015.28 1015.24 1015.34 1015.40 1015.52 1015.66 1015.64 1015.54 1015.54 1015.58 1015.36 1015.24 1015.30 1015.08 1014.88 1014.64 1014.72 1014.48 1014.54 1014.50 1014.28 1014.14 1014.14 1014.20 1014.06 1014.10 1014.08 1014.06 1013.80 1013.64 1013.66 1013.74 1013.72 1013.72
1010.96 1011.30 1011.74 1011.90 1012.40 1012.58 1012.76 1012.90 1013.00 1013.20 1013.48 1013.62 1013.76 1013.98 1014.00 1014.30 1014.42 1014.48 1014.66 1014.74 1014.90 1015.06 1015.10 1015.10 1015.20 1015.20 1015.22 1015.26 1015.22 1015.36 1015.48 1015.50 1015.50 1015.50 1015.50 1015.64 1015.56 1015.50 1015.40 1015.34 1015.30 1015.24 1015.18 1014.84 1014.72 1014.50 1014.56 1014.38 1014.30 1014.30 1014.32 1014.18 1014.02 1013.88 1013.96 1013.96 1013.90 1013.86 1013.66 1013.54 1013.58 1013.52 1013.44
1010.82 1011.18 1011.70 1011.80 1012.00 1012.44 1012.84 1012.88 1012.96 1013.06 1013.34 1013.46 1013.64 1013.94 1014.10 1014.36 1014.34 1014.46 1014.66 1014.86 1015.06 1015.08 1015.06 1015.14 1015.20 1015.22 1015.22 1015.28 1015.42 1015.52 1015.48 1015.48 1015.56 1015.60 1015.70 1015.60 1015.56 1015.44 1015.28 1015.28 1015.20 1015.04 1014.72 1014.66 1014.80 1014.68 1014.28 1014.30 1014.28 1014.34 1014.34 1014.34 1014.08 1014.00 1014.00 1013.96 1013.86 1013.76 1013.66 1013.60 1013.54 1013.36 1013.28
1010.90 1011.36 1011.56 1011.50 1011.76 1012.22 1012.56 1012.72 1012.92 1013.04 1013.10 1013.24 1013.62 1013.78 1014.02 1014.34 1014.18 1014.30 1014.40 1014.62 1015.00 1015.10 1015.30 1015.20 1015.10 1015.20 1015.24 1015.42 1015.48 1015.50 1015.54 1015.50 1015.48 1015.52 1015.58 1015.50 1015.52 1015.38 1015.36 1015.28 1015.22 1014.98 1015.04 1014.86 1014.40 1014.52 1014.54 1014.56 1014.46 1014.32 1014.36 1014.32 1014.24 1014.08 1013.98 1013.98 1013.84 1013.64 1013.52 1013.54 1013.50 1013.32 1013.26
1010.94 1011.20 1011.46 1011.62 1011.98 1012.50 1012.64 1012.78 1012.98 1013.08 1013.22 1013.16 1013.46 1013.62 1013.82 1013.94 1013.98 1014.20 1014.36 1014.46 1014.68 1015.00 1014.96 1015.06 1014.98 1014.96 1015.08 1015.16 1015.22 1015.30 1015.38 1015.48 1015.52 1015.48 1015.48 1015.40 1015.40 1015.36 1015.40 1015.32 1015.10 1015.00 1015.00 1014.88 1014.60 1014.70 1014.78 1014.82 1014.58 1014.44 1014.34 1014.32 1014.28 1014.04 1013.96 1013.72 1013.58 1013.48 1013.48 1013.52 1013.56 1013.34 1013.18
1011.10 1011.38 1011.52 1011.58 1011.96 1012.40 1012.48 1012.62 1012.74 1012.92 1013.18 1013.34 1013.58 1013.78 1013.64 1013.76 1013.82 1014.10 1014.34 1014.54 1014.68 1014.72 1014.76 1014.94 1015.08 1015.04 1015.20 1015.00 1015.14 1015.26 1015.28 1015.38 1015.46 1015.46 1015.52 1015.48 1015.48 1015.46 1015.36 1015.28 1015.30 1015.14 1015.00 1014.82 1014.66 1014.64 1014.86 1014.82 1014.80 1014.80 1014.74 1014.44 1014.18 1014.04 1013.78 1013.62 1013.50 1013.50 1013.56 1013.52 1013.44 1013.28 1013.06
1010.74 1011.08 1011.32 1011.48 1011.76 1012.22 1012.34 1012.48 1012.54 1012.64 1012.82 1013.00 1013.30 1013.48 1013.40 1013.72 1013.92 1014.00 1014.26 1014.54 1014.58 1014.88 1014.90 1015.06 1015.06 1015.08 1015.14 1015.08 1015.26 1015.32 1015.48 1015.44 1015.48 1015.58 1015.44 1015.48 1015.48 1015.50 1015.30 1015.38 1015.22 1014.92 1014.74 1015.04 1014.94 1014.86 1015.00 1014.90 1014.78 1014.68 1014.52 1014.42 1014.26 1014.04 1013.88 1013.92 1013.86 1013.62 1013.52 1013.50 1013.44 1013.22 1013.10
1010.36 1010.94 1011.02 1011.20 1011.42 1011.66 1011.96 1012.24 1012.36 1012.46 1012.62 1012.86 1013.38 1013.70 1013.66 1013.58 1013.60 1013.92 1014.28 1014.38 1014.52 1014.56 1014.74 1014.92 1015.02 1015.08 1015.14 1015.18 1015.22 1015.38 1015.44 1015.28 1015.30 1015.40 1015.42 1015.56 1015.50 1015.46 1015.26 1015.02 1015.08 1015.10 1015.10 1015.06 1014.84 1014.86 1014.92 1014.74 1014.48 1014.20 1014.28 1014.30 1014.18 1014.16 1014.06 1013.90 1013.82 1013.60 1013.40 1013.38 1013.36 1013.24 1012.94
1010.20 1010.28 1010.66 1010.88 1011.12 1011.46 1011.74 1012.06 1012.24 1012.32 1012.72 1013.14 1013.50 1013.74 1013.76 1013.56 1013.64 1013.78 1014.04 1014.26 1014.34 1014.56 1014.64 1014.64 1014.78 1014.92 1015.02 1015.18 1015.28 1015.38 1015.32 1015.34 1015.40 1015.40 1015.52 1015.58 1015.38 1015.28 1015.08 1015.00 1015.04 1014.92 1015.06 1014.96 1014.86 1014.54 1014.34 1014.28 1014.32 1014.40 1014.34 1014.36 1014.30 1014.18 1014.00 1013.80 1013.66 1013.42 1013.36 1013.34 1013.34 1013.26 1012.96
1010.00 1010.32 1010.46 1010.60 1010.76 1011.12 1011.58 1011.94 1012.18 1012.36 1012.92 1013.26 1013.54 1013.78 1013.90 1013.78 1013.74 1013.70 1013.96 1014.16 1014.26 1014.56 1014.60 1014.64 1014.74 1014.90 1015.06 1015.16 1015.24 1015.20 1015.24 1015.34 1015.34 1015.42 1015.50 1015.58 1015.30 1015.28 1015.18 1015.04 1014.94 1014.86 1014.96 1014.96 1014.74 1014.46 1014.16 1014.16 1014.28 1014.40 1014.50 1014.46 1014.24 1013.94 1013.82 1013.72 1013.60 1013.42 1013.26 1013.20 1013.16 1013.10 1012.96
1009.62 1010.10 1010.42 1010.76 1011.08 1011.34 1011.74 1012.12 1012.42 1012.58 1012.76 1013.14 1013.40 1013.54 1013.70 1013.84 1013.94 1013.98 1013.96 1014.06 1014.24 1014.38 1014.40 1014.56 1014.60 1014.84 1015.00 1015.12 1015.30 1015.30 1015.36 1015.36 1015.32 1015.42 1015.42 1015.42 1015.16 1015.06 1015.00 1014.98 1014.88 1014.76 1014.86 1014.80 1014.62 1014.54 1014.46 1014.34 1014.26 1014.30 1014.26 1014.16 1013.94 1013.88 1013.78 1013.62 1013.46 1013.38 1013.22 1013.06 1012.90 1012.84 1012.78
1009.78 1010.20 1010.70 1010.80 1011.12 1011.50 1012.04 1012.16 1012.28 1012.52 1012.72 1012.92 1013.04 1013.30 1013.54 1013.72 1013.80 1013.92 1013.92 1013.94 1013.88 1014.22 1014.38 1014.50 1014.46 1014.72 1014.94 1015.08 1015.22 1015.26 1015.28 1015.22 1015.24 1015.28 1015.24 1015.20 1015.06 1014.86 1014.76 1014.74 1014.80 1014.80 1014.70 1014.70 1014.84 1014.66 1014.52 1014.40 1014.28 1014.16 1014.16 1014.00 1013.94 1013.84 1013.70 1013.50 1013.40 1013.28 1013.14 1012.96 1012.82 1012.72 1012.58
1009.98 1010.44 1010.78 1010.90 1011.18 1011.48 1011.88 1012.28 1012.40 1012.52 1012.64 1012.64 1012.68 1012.98 1013.26 1013.54 1013.72 1013.78 1013.92 1013.98 1013.88 1013.94 1014.18 1014.34 1014.42 1014.64 1014.84 1014.96 1015.08 1015.18 1015.20 1015.18 1015.12 1015.06 1015.04 1014.98 1014.90 1014.78 1014.78 1014.78 1014.68 1014.66 1014.70 1014.56 1014.56 1014.56 1014.44 1014.16 1014.18 1013.98 1013.88 1013.88 1013.76 1013.66 1013.52 1013.38 1013.24 1013.16 1013.04 1012.88 1012.70 1012.56 1012.46
1010.08 1010.44 1010.72 1010.90 1011.22 1011.58 1012.06 1012.16 1012.24 1012.44 1012.60 1012.58 1012.60 1012.76 1013.08 1013.20 1013.32 1013.58 1013.78 1013.96 1013.88 1013.92 1014.04 1014.14 1014.34 1014.62 1014.76 1014.84 1014.94 1015.06 1015.08 1014.98 1014.80 1014.90 1014.88 1014.82 1014.76 1014.76 1014.68 1014.60 1014.54 1014.48 1014.40 1014.36 1014.48 1014.42 1014.32 1014.08 1013.88 1013.70 1013.60 1013.60 1013.56 1013.42 1013.26 1013.16 1013.08 1012.92 1012.78 1012.66 1012.52 1012.40 1012.26
1010.30 1010.60 1010.90 1011.22 1011.34 1011.40 1011.66 1012.08 1012.16 1012.24 1012.36 1012.44 1012.48 1012.84 1013.08 1013.18 1013.22 1013.32 1013.52 1013.60 1013.70 1013.84 1013.98 1013.94 1014.26 1014.52 1014.62 1014.74 1014.92 1014.94 1014.84 1014.72 1014.68 1014.62 1014.66 1014.70 1014.72 1014.68 1014.58 1014.44 1014.36 1014.30 1014.24 1014.24 1014.20 1014.06 1013.98 1013.96 1013.96 1013.88 1013.84 1013.46 1013.32 1013.24 1013.06 1012.96 1012.76 1012.50 1012.42 1012.46 1012.44 1012.30 1012.18
1010.24 1010.50 1010.64 1010.68 1010.92 1011.10 1011.30 1011.44 1011.72 1011.90 1012.10 1012.32 1012.46 1012.70 1012.90 1013.10 1013.22 1013.34 1013.56 1013.68 1013.66 1013.84 1013.80 1013.86 1014.22 1014.38 1014.46 1014.64 1014.74 1014.66 1014.58 1014.56 1014.60 1014.66 1014.62 1014.66 1014.66 1014.56 1014.44 1014.32 1014.24 1014.20 1014.18 1014.10 1014.00 1013.90 1013.80 1013.74 1013.70 1013.72 1013.72 1013.58 1013.30 1013.10 1012.92 1012.72 1012.44 1012.30 1012.42 1012.60 1012.62 1012.48 1012.26
1009.98 1010.12 1010.14 1010.20 1010.34 1010.74 1010.88 1011.10 1011.32 1011.64 1011.88 1012.02 1012.14 1012.26 1012.50 1012.80 1012.96 1013.10 1013.28 1013.44 1013.58 1013.70 1013.62 1013.72 1014.06 1014.22 1014.34 1014.50 1014.48 1014.48 1014.44 1014.50 1014.54 1014.50 1014.60 1014.52 1014.44 1014.36 1014.32 1014.28 1014.14 1014.10 1014.06 1013.96 1013.82 1013.76 1013.60 1013.52 1013.54 1013.50 1013.34 1013.28 1013.12 1012.98 1012.74 1012.46 1012.22 1012.22 1012.54 1012.64 1012.68 1012.56 1012.26
1009.70 1009.76 1009.82 1009.94 1009.96 1010.28 1010.70 1010.88 1011.12 1011.36 1011.48 1011.60 1011.72 1011.90 1012.22 1012.58 1012.74 1012.96 1013.18 1013.22 1013.40 1013.42 1013.36 1013.66 1013.88 1014.08 1014.18 1014.18 1014.30 1014.32 1014.36 1014.38 1014.34 1014.40 1014.40 1014.34 1014.32 1014.22 1014.16 1014.12 1014.08 1014.04 1013.94 1013.78 1013.68 1013.48 1013.26 1013.30 1013.26 1013.14 1013.08 1012.92 1012.68 1012.64 1012.40 1012.10 1011.84 1012.08 1012.28 1012.44 1012.44 1012.42 1012.16
1009.04 1009.18 1009.24 1009.52 1009.72 1010.08 1010.24 1010.38 1010.50 1010.72 1010.84 1011.02 1011.28 1011.58 1011.72 1011.96 1012.46 1012.80 1012.80 1013.00 1013.02 1013.06 1013.38 1013.62 1013.78 1013.86 1013.96 1014.00 1014.18 1014.24 1014.22 1014.24 1014.32 1014.32 1014.28 1014.20 1014.12 1014.06 1014.00 1014.00 1013.98 1013.88 1013.80 1013.74 1013.42 1013.26 1013.32 1013.18 1012.98 1012.92 1012.70 1012.50 1012.52 1012.36 1012.04 1011.78 1011.60 1011.92 1012.04 1012.14 1012.20 1012.18 1012.10
1008.52 1008.54 1008.78 1009.08 1009.32 1009.64 1009.88 1009.94 1010.10 1010.28 1010.44 1010.58 1010.68 1010.88 1011.14 1011.42 1011.92 1012.16 1012.22 1012.48 1012.70 1013.04 1013.28 1013.52 1013.66 1013.70 1013.82 1013.92 1014.10 1014.14 1014.12 1014.16 1014.16 1014.18 1014.12 1014.02 1013.98 1013.92 1013.92 1013.90 1013.88 1013.70 1013.54 1013.44 1013.30 1013.24 1013.12 1012.90 1012.76 1012.56 1012.44 1012.28 1012.22 1012.12 1011.86 1011.66 1011.46 1011.62 1011.74 1011.86 1011.92 1011.92 1011.92
1008.30 1008.46 1008.74 1009.10 1009.36 1009.34 1009.54 1009.72 1009.86 1010.08 1010.36 1010.40 1010.40 1010.64 1011.02 1011.44 1011.58 1011.84 1012.18 1012.32 1012.74 1012.86 1013.16 1013.36 1013.48 1013.54 1013.70 1013.94 1013.98 1013.98 1014.02 1014.02 1014.00 1014.04 1013.98 1013.92 1013.88 1013.86 1013.86 1013.82 1013.70 1013.62 1013.48 1013.38 1013.30 1013.16 1012.96 1012.74 1012.62 1012.40 1012.20 1012.04 1011.94 1011.84 1011.66 1011.30 1011.22 1011.36 1011.46 1011.54 1011.62 1011.64 1011.66
1008.34 1008.42 1008.80 1008.62 1009.04 1009.16 1009.38 1009.54 1009.72 1009.84 1010.18 1010.00 1010.22 1010.54 1010.84 1011.26 1011.30 1011.76 1012.14 1012.10 1012.54 1012.80 1013.04 1013.34 1013.44 1013.46 1013.60 1013.82 1013.86 1013.88 1013.84 1013.88 1013.94 1013.96 1013.92 1013.90 1013.84 1013.84 1013.80 1013.68 1013.58 1013.54 1013.30 1013.18 1013.00 1012.76 1012.54 1012.38 1012.20 1012.12 1011.96 1011.76 1011.64 1011.56 1011.40 1010.98 1010.88 1011.02 1011.14 1011.20 1011.30 1011.38 1011.20
1007.76 1008.22 1008.36 1008.40 1008.42 1008.90 1008.96 1008.98 1009.32 1009.38 1009.78 1010.04 1010.08 1010.50 1010.84 1010.96 1011.22 1011.64 1012.02 1012.38 1012.54 1012.80 1013.10 1013.26 1013.42 1013.46 1013.56 1013.72 1013.76 1013.80 1013.76 1013.78 1013.92 1013.94 1013.90 1013.80 1013.80 1013.76 1013.66 1013.60 1013.46 1013.30 1013.06 1013.12 1012.94 1012.78 1012.56 1012.36 1012.12 1011.82 1011.68 1011.56 1011.42 1011.32 1011.08 1010.74 1010.50 1010.64 1010.84 1010.94 1011.02 1011.16 1010.82
1007.52 1007.78 1007.92 1008.24 1008.46 1008.72 1009.04 1009.04 1009.10 1009.38 1009.76 1010.10 1010.26 1010.40 1010.56 1010.90 1011.32 1011.72 1012.20 1012.48 1012.62 1012.90 1013.20 1013.24 1013.36 1013.42 1013.54 1013.66 1013.72 1013.68 1013.66 1013.70 1013.82 1013.90 1013.82 1013.74 1013.76 1013.68 1013.52 1013.34 1013.18 1013.12 1012.88 1013.00 1012.86 1012.70 1012.38 1012.10 1011.86 1011.54 1011.30 1011.24 1011.16 1010.94 1010.86 1010.58 1010.34 1010.44 1010.58 1010.76 1010.86 1010.92 1010.68
1007.36 1007.56 1007.94 1008.50 1008.88 1009.28 1009.20 1009.38 1009.42 1009.68 1009.76 1010.08 1010.58 1010.60 1010.62 1010.98 1011.34 1011.84 1012.28 1012.52 1012.76 1012.90 1013.24 1013.26 1013.34 1013.44 1013.60 1013.64 1013.54 1013.52 1013.56 1013.62 1013.68 1013.74 1013.74 1013.74 1013.62 1013.48 1013.46 1013.34 1013.18 1012.92 1012.72 1012.64 1012.48 1012.34 1012.00 1011.68 1011.54 1011.36 1011.12 1010.90 1010.78 1010.66 1010.72 1010.42 1010.12 1010.08 1010.26 1010.46 1010.62 1010.70 1010.42
1007.76 1008.00 1008.34 1008.46 1008.58 1008.78 1009.18 1009.40 1009.76 1010.00 1010.24 1010.50 1010.64 1010.40 1010.56 1010.92 1011.42 1011.90 1012.26 1012.54 1012.58 1012.94 1013.16 1013.28 1013.32 1013.30 1013.32 1013.36 1013.38 1013.40 1013.50 1013.50 1013.62 1013.60 1013.64 1013.64 1013.50 1013.36 1013.26 1013.06 1012.92 1012.76 1012.62 1012.46 1012.24 1012.04 1011.88 1011.78 1011.58 1011.48 1011.16 1010.80 1010.64 1010.44 1010.24 1010.18 1010.04 1009.94 1010.14 1010.28 1010.38 1010.50 1010.42
1007.66 1007.90 1008.32 1008.58 1008.94 1008.98 1009.38 1009.52 1009.62 1009.98 1010.22 1010.40 1010.42 1010.38 1010.50 1010.86 1011.42 1012.00 1012.30 1012.54 1012.76 1013.08 1013.16 1013.10 1013.12 1013.20 1013.28 1013.28 1013.34 1013.44 1013.46 1013.44 1013.46 1013.56 1013.46 1013.38 1013.36 1013.18 1013.06 1012.84 1012.74 1012.60 1012.52 1012.42 1012.18 1012.06 1011.98 1011.86 1011.64 1011.42 1011.14 1010.80 1010.54 1010.34 1010.16 1010.04 1010.04 1009.86 1009.92 1010.02 1010.10 1010.16 1010.26
1007.90 1008.08 1008.28 1008.70 1009.06 1009.12 1009.32 1009.48 1009.82 1010.06 1010.34 1010.46 1010.42 1010.46 1010.62 1010.90 1011.66 1012.12 1012.38 1012.52 1012.94 1013.04 1012.88 1012.96 1013.04 1013.08 1013.22 1013.34 1013.44 1013.42 1013.40 1013.38 1013.34 1013.30 1013.26 1013.16 1013.10 1013.08 1012.96 1012.70 1012.58 1012.46 1012.36 1012.24 1012.18 1012.14 1011.98 1011.72 1011.52 1011.30 1011.04 1010.72 1010.40 1010.20 1010.02 1009.76 1009.74 1009.66 1009.60 1009.72 1009.82 1009.90 1009.94
1008.68 1008.94 1009.26 1009.40 1009.44 1009.30 1009.32 1009.82 1010.16 1010.48 1010.66 1010.66 1010.72 1010.76 1010.86 1011.28 1012.04 1012.28 1012.40 1012.82 1012.84 1012.52 1012.72 1012.90 1012.98 1013.10 1013.24 1013.36 1013.42 1013.42 1013.36 1013.30 1013.30 1013.28 1013.10 1013.04 1012.92 1012.94 1012.94 1012.72 1012.58 1012.44 1012.30 1012.24 1012.16 1012.04 1011.84 1011.54 1011.24 1011.02 1010.78 1010.52 1010.16 1009.88 1009.70 1009.48 1009.32 1009.52 1009.46 1009.46 1009.52 1009.56 1009.60
1008.70 1008.86 1008.94 1008.90 1009.08 1009.34 1009.50 1009.98 1010.26 1010.60 1010.82 1010.94 1011.08 1011.22 1011.38 1011.78 1012.36 1012.54 1012.74 1013.10 1012.66 1012.56 1012.64 1012.80 1012.98 1013.12 1013.26 1013.32 1013.38 1013.36 1013.30 1013.24 1013.18 1013.06 1012.96 1012.86 1012.84 1012.80 1012.80 1012.68 1012.56 1012.42 1012.24 1012.14 1012.06 1011.92 1011.74 1011.40 1011.02 1010.78 1010.58 1010.40 1010.12 1009.76 1009.46 1009.24 1009.16 1009.10 1009.14 1009.12 1009.16 1009.20 1009.22
1008.90 1008.96 1009.06 1009.30 1009.58 1009.66 1009.86 1010.28 1010.74 1010.98 1011.22 1011.34 1011.48 1011.62 1011.80 1011.92 1012.40 1012.72 1013.08 1012.96 1012.68 1012.86 1012.92 1012.98 1013.04 1013.20 1013.26 1013.34 1013.30 1013.24 1013.16 1013.12 1013.08 1012.94 1012.74 1012.62 1012.54 1012.60 1012.50 1012.44 1012.28 1012.28 1011.96 1011.86 1011.82 1011.72 1011.64 1011.34 1010.98 1010.84 1010.54 1010.26 1010.06 1009.72 1009.38 1009.10 1008.94 1008.86 1008.84 1008.88 1008.82 1008.84 1008.92
1009.04 1009.10 1009.30 1009.60 1009.92 1010.10 1010.34 1010.54 1010.90 1011.34 1011.74 1011.80 1011.76 1011.96 1012.06 1012.12 1012.32 1012.96 1013.08 1012.76 1012.82 1012.82 1013.00 1013.12 1013.24 1013.36 1013.40 1013.28 1013.20 1013.14 1013.04 1013.10 1012.88 1012.56 1012.42 1012.32 1012.16 1012.08 1011.98 1011.96 1011.96 1011.98 1011.90 1011.78 1011.66 1011.50 1011.38 1011.16 1010.88 1010.74 1010.50 1010.24 1009.96 1009.78 1009.50 1009.14 1008.94 1008.80 1008.64 1008.48 1008.58 1008.68 1008.76
1009.58 1009.66 1009.94 1010.26 1010.32 1010.32 1010.58 1010.84 1011.38 1011.86 1012.08 1012.36 1012.12 1012.06 1012.20 1012.44 1012.52 1012.72 1012.80 1012.88 1012.66 1012.70 1013.02 1013.14 1013.24 1013.22 1013.14 1013.20 1013.08 1012.94 1012.96 1013.02 1012.84 1012.70 1012.38 1012.00 1011.86 1011.76 1011.58 1011.54 1011.68 1011.78 1011.76 1011.64 1011.48 1011.36 1011.32 1011.20 1010.96 1010.68 1010.44 1010.24 1009.88 1009.58 1009.34 1009.10 1008.86 1008.70 1008.50 1008.60 1008.72 1008.62 1008.46
1010.24 1010.38 1010.44 1010.46 1010.56 1010.66 1010.90 1011.22 1011.60 1012.00 1012.24 1012.48 1012.28 1012.22 1012.32 1012.56 1012.72 1012.70 1012.72 1012.76 1012.82 1012.78 1013.06 1013.12 1013.22 1013.24 1013.06 1012.96 1012.90 1012.94 1012.90 1012.88 1012.74 1012.66 1012.26 1011.98 1011.96 1011.92 1011.78 1011.62 1011.58 1011.60 1011.58 1011.52 1011.44 1011.40 1011.36 1011.26 1011.06 1010.78 1010.46 1010.16 1009.76 1009.48 1009.32 1009.10 1008.76 1008.46 1008.66 1008.92 1008.98 1008.92 1008.74
1010.62 1010.82 1010.94 1011.14 1011.22 1011.22 1011.58 1011.68 1011.98 1012.18 1012.44 1012.62 1012.50 1012.48 1012.64 1012.74 1012.72 1012.74 1012.88 1012.88 1012.92 1013.08 1013.18 1013.28 1013.24 1013.28 1013.02 1012.78 1012.80 1012.76 1012.68 1012.60 1012.44 1012.28 1012.20 1012.16 1011.98 1011.68 1011.54 1011.62 1011.58 1011.58 1011.46 1011.12 1011.02 1011.16 1011.28 1011.26 1010.92 1010.52 1010.08 1009.78 1009.58 1009.52 1009.34 1009.06 1008.82 1008.52 1008.82 1008.98 1009.06 1009.08 1008.86
1010.88 1011.08 1011.28 1011.28 1011.34 1011.56 1011.78 1011.94 1012.10 1012.40 1012.60 1012.68 1012.54 1012.64 1012.76 1012.86 1012.88 1012.86 1012.86 1012.94 1013.02 1013.12 1013.36 1013.40 1013.32 1013.12 1012.84 1012.64 1012.68 1012.60 1012.78 1012.74 1012.46 1012.18 1012.28 1012.16 1011.94 1011.74 1011.32 1011.12 1011.38 1011.44 1011.42 1011.12 1010.98 1011.12 1011.20 1011.24 1011.04 1010.54 1010.26 1010.00 1009.52 1009.22 1009.28 1009.12 1008.78 1008.80 1008.88 1008.86 1008.82 1008.82 1008.90
1011.28 1011.46 1011.60 1011.52 1011.76 1011.96 1012.08 1012.20 1012.26 1012.42 1012.68 1012.68 1012.64 1012.76 1012.84 1012.90 1012.96 1013.00 1012.96 1012.98 1013.04 1013.20 1013.32 1013.36 1013.40 1013.30 1013.00 1012.84 1012.76 1013.00 1013.20 1012.86 1012.54 1012.36 1012.40 1012.16 1011.86 1011.74 1011.88 1011.62 1011.04 1010.90 1010.94 1010.90 1010.92 1011.00 1011.00 1010.92 1010.84 1010.76 1010.68 1010.56 1010.00 1009.30 1009.26 1009.24 1009.14 1009.00 1008.82 1008.70 1008.62 1008.62 1008.60
1011.12 1011.36 1011.50 1011.60 1011.86 1012.12 1012.30 1012.42 1012.46 1012.58 1012.72 1012.62 1012.64 1012.80 1012.84 1012.98 1013.02 1013.10 1012.78 1012.96 1013.08 1013.18 1013.24 1013.34 1013.44 1013.52 1013.32 1013.08 1013.04 1013.06 1013.06 1012.86 1012.62 1012.56 1012.42 1012.08 1011.96 1012.20 1012.32 1012.16 1011.78 1010.98 1010.52 1010.72 1010.78 1010.74 1010.72 1010.66 1010.50 1010.38 1010.26 1010.14 1010.20 1010.02 1009.26 1008.84 1008.70 1008.60 1008.46 1008.40 1008.36 1008.24 1008.08
Thickness
5801 5799 5798 5795 5794 5792 5791 5791 5790 5789 5788 5786 5786 5785 5784 5783 5783 5781 5780 5779 5777 5776 5776 5776 5776 5775 5774 5774 5774 5773 5773 5772 5772 5771 5771 5771 5771 5771 5771 5772 5772 5772 5774 5776 5776 5777 5778 5778 5778 5779 5780 5779 5779 5779 5778 5777 5778 5778 5779 5779 5778 5777 5777
5801 5799 5798 5795 5793 5792 5791 5791 5790 5789 5787 5786 5786 5784 5782 5781 5780 5779 5778 5777 5776 5774 5775 5774 5774 5774 5773 5773 5773 5772 5771 5771 5771 5770 5770 5770 5770 5770 5771 5771 5772 5771 5773 5775 5776 5776 5776 5777 5777 5776 5777 5777 5778 5778 5777 5777 5777 5777 5778 5778 5777 5777 5776
5801 5798 5796 5796 5795 5792 5790 5790 5789 5789 5787 5786 5784 5783 5781 5780 5779 5779 5777 5775 5774 5773 5773 5773 5773 5773 5772 5772 5771 5770 5770 5770 5770 5768 5768 5768 5768 5769 5770 5770 5770 5771 5772 5773 5773 5774 5775 5775 5774 5774 5774 5774 5775 5776 5776 5776 5775 5775 5776 5776 5776 5777 5776
5799 5798 5796 5796 5796 5791 5789 5790 5788 5788 5787 5786 5784 5783 5781 5779 5779 5779 5777 5776 5773 5771 5772 5771 5772 5772 5771 5770 5770 5769 5769 5768 5768 5768 5767 5767 5767 5768 5768 5768 5769 5770 5770 5771 5771 5772 5771 5771 5772 5772 5772 5771 5772 5773 5773 5773 5773 5774 5774 5773 5773 5774 5774
5798 5797 5795 5795 5794 5789 5789 5789 5787 5787 5785 5785 5784 5782 5781 5780 5779 5778 5776 5775 5774 5772 5772 5771 5771 5771 5770 5770 5769 5768 5769 5767 5767 5766 5766 5766 5766 5766 5766 5766 5767 5768 5767 5768 5770 5769 5767 5767 5768 5768 5769 5769 5769 5770 5771 5771 5772 5772 5772 5771 5770 5771 5772
5797 5796 5794 5794 5792 5788 5788 5787 5787 5787 5784 5784 5783 5781 5782 5780 5778 5777 5775 5774 5772 5771 5772 5770 5770 5770 5769 5769 5769 5767 5767 5765 5765 5764 5764 5764 5763 5763 5764 5764 5764 5765 5765 5766 5766 5766 5764 5764 5764 5764 5764 5766 5766 5767 5768 5769 5769 5769 5768 5768 5767 5768 5769
5799 5796 5794 5794 5791 5788 5788 5787 5787 5787 5784 5784 5782 5780 5781 5779 5777 5777 5774 5772 5771 5770 5770 5768 5768 5768 5767 5767 5766 5765 5764 5764 5763 5763 5762 5762 5761 5761 5762 5762 5762 5763 5763 5763 5762 5763 5761 5760 5762 5762 5762 5762 5763 5764 5764 5764 5764 5764 5765 5764 5764 5765 5766
5800 5798 5795 5794 5792 5790 5788 5786 5786 5786 5784 5783 5779 5777 5778 5778 5777 5776 5773 5771 5771 5770 5769 5767 5767 5766 5765 5765 5764 5763 5762 5763 5762 5761 5760 5760 5759 5759 5760 5760 5760 5760 5760 5759 5759 5760 5759 5759 5761 5760 5760 5760 5759 5760 5760 5760 5760 5761 5762 5761 5761 5761 5762
5802 5799 5797 5795 5793 5791 5788 5786 5785 5785 5783 5780 5777 5775 5775 5776 5776 5775 5772 5771 5770 5768 5768 5767 5766 5765 5764 5763 5762 5761 5761 5760 5760 5759 5757 5757 5756 5757 5758 5758 5758 5757 5756 5756 5757 5759 5759 5759 5758 5757 5756 5755 5755 5755 5756 5756 5757 5758 5758 5757 5756 5757 5758
5803 5800 5798 5795 5793 5791 5788 5785 5785 5784 5780 5778 5776 5774 5773 5773 5774 5773 5772 5770 5769 5767 5766 5766 5765 5763 5762 5760 5759 5759 5759 5758 5757 5756 5755 5754 5755 5755 5755 5755 5755 5755 5754 5754 5754 5756 5757 5756 5755 5753 5752 5751 5751 5752 5752 5753 5753 5753 5754 5753 5753 5753 5753
5804 5800 5797 5794 5791 5789 5786 5784 5782 5781 5779 5777 5775 5773 5773 5771 5771 5771 5770 5769 5768 5766 5765 5764 5763 5761 5760 5758 5757 5756 5756 5755 5754 5754 5753 5752 5752 5753 5753 5752 5752 5752 5752 5751 5751 5751 5752 5751 5750 5749 5748 5748 5748 5749 5748 5749 5749 5749 5749 5749 5750 5749 5749
5802 5798 5794 5792 5790 5787 5784 5782 5781 5780 5779 5777 5776 5774 5772 5771 5769 5769 5769 5768 5768 5766 5764 5762 5761 5759 5757 5756 5755 5754 5753 5753 5752 5751 5751 5750 5750 5751 5751 5750 5749 5749 5748 5748 5747 5746 5746 5746 5746 5745 5744 5744 5744 5744 5744 5744 5744 5744 5744 5745 5745 5745 5745
5800 5796 5792 5791 5790 5785 5783 5781 5780 5779 5777 5777 5778 5775 5773 5771 5770 5768 5767 5766 5766 5765 5763 5761 5759 5757 5755 5754 5753 5752 5751 5751 5750 5749 5748 5748 5748 5748 5747 5747 5746 5745 5745 5744 5743 5742 5742 5743 5742 5742 5742 5740 5740 5740 5740 5741 5740 5740 5741 5740 5741 5741 5741
5797 5794 5791 5789 5787 5784 5782 5779 5779 5779 5777 5777 5777 5774 5772 5771 5770 5769 5767 5766 5765 5764 5762 5760 5758 5755 5753 5752 5751 5749 5748 5748 5748 5747 5746 5745 5745 5744 5743 5743 5743 5742 5741 5741 5740 5738 5738 5738 5738 5738 5738 5737 5736 5736 5736 5736 5736 5736 5737 5736 5736 5736 5736
5794 5792 5789 5786 5785 5784 5782 5779 5779 5778 5776 5776 5776 5772 5771 5770 5769 5768 5766 5764 5764 5762 5760 5759 5755 5753 5751 5750 5748 5746 5746 5746 5745 5745 5743 5742 5741 5740 5740 5740 5739 5739 5738 5737 5736 5735 5735 5734 5733 5732 5731 5732 5732 5731 5732 5732 5732 5733 5732 5731 5730 5730 5731
5793 5791 5789 5788 5787 5785 5784 5782 5780 5779 5777 5776 5774 5772 5770 5767 5767 5766 5763 5762 5761 5758 5758 5757 5753 5751 5749 5747 5746 5745 5744 5743 5742 5741 5740 5739 5738 5737 5737 5737 5736 5735 5734 5733 5732 5732 5731 5730 5728 5727 5726 5726 5726 5726 5726 5726 5728 5728 5726 5723 5722 5722 5723
5794 5792 5791 5791 5790 5786 5785 5783 5781 5779 5777 5775 5774 5773 5770 5767 5766 5764 5762 5761 5758 5757 5757 5755 5752 5749 5747 5745 5744 5743 5741 5740 5739 5737 5736 5736 5735 5734 5734 5733 5732 5731 5730 5729 5728 5728 5727 5726 5724 5723 5722 5722 5722 5721 5721 5722 5723 5722 5719 5717 5716 5716 5717
5795 5794 5793 5792 5791 5788 5785 5784 5782 5779 5778 5777 5775 5773 5770 5768 5765 5762 5761 5759 5757 5757 5755 5753 5750 5747 5745 5744 5742 5740 5738 5737 5736 5735 5733 5733 5732 5731 5730 5729 5728 5727 5725 5725 5724 5724 5723 5721 5720 5719 5719 5719 5718 5717 5717 5719 5719 5717 5714 5712 5711 5711 5712
5798 5797 5797 5794 5792 5790 5787 5786 5785 5782 5780 5779 5776 5774 5772 5769 5765 5761 5760 5758 5757 5756 5753 5749 5747 5745 5743 5742 5739 5737 5736 5734 5733 5732 5731 5730 5729 5727 5727 5725 5724 5723 5722 5721 5721 5720 5719 5718 5717 5717 5716 5716 5715 5715 5715 5715 5715 5713 5710 5708 5707 5706 5706
5800 5799 5799 5795 5793 5791 5789 5788 5786 5784 5783 5781 5778 5777 5773 5770 5766 5763 5761 5759 5756 5753 5750 5747 5745 5743 5740 5738 5736 5734 5733 5732 5730 5729 5727 5727 5725 5724 5723 5721 5720 5720 5718 5717 5717 5716 5715 5715 5714 5714 5713 5712 5711 5711 5711 5712 5711 5709 5707 5705 5704 5702 5701
5801 5800 5797 5794 5792 5791 5789 5788 5786 5783 5782 5780 5780 5777 5773 5769 5766 5763 5760 5758 5754 5751 5748 5744 5742 5741 5738 5735 5733 5731 5730 5729 5727 5726 5724 5723 5722 5721 5720 5718 5717 5716 5715 5714 5713 5712 5712 5711 5711 5710 5709 5709 5708 5707 5708 5708 5707 5705 5703 5701 5699 5697 5697
5801 5798 5796 5795 5793 5790 5789 5788 5786 5783 5781 5780 5778 5775 5770 5768 5765 5761 5758 5755 5752 5748 5745 5741 5739 5738 5735 5732 5730 5729 5728 5726 5724 5722 5721 5720 5718 5717 5716 5714 5713 5712 5712 5710 5709 5709 5709 5708 5707 5707 5706 5706 5705 5704 5704 5705 5705 5702 5699 5698 5695 5693 5694
5802 5798 5796 5797 5794 5792 5790 5788 5787 5785 5780 5778 5776 5772 5769 5766 5763 5759 5754 5751 5748 5744 5741 5738 5736 5735 5732 5729 5727 5726 5725 5722 5720 5718 5717 5716 5715 5713 5712 5711 5710 5709 5708 5706 5705 5705 5704 5704 5704 5704 5703 5702 5701 5700 5701 5701 5701 5699 5696 5693 5690 5689 5689
5802 5799 5797 5795 5792 5790 5788 5786 5786 5783 5779 5776 5773 5770 5768 5764 5760 5755 5750 5746 5744 5740 5736 5735 5732 5731 5728 5726 5724 5723 5721 5719 5717 5715 5714 5713 5711 5710 5709 5707 5706 5705 5705 5703 5702 5701 5701 5701 5701 5701 5700 5699 5698 5697 5696 5697 5697 5694 5691 5689 5686 5683 5684
5801 5799 5795 5792 5789 5786 5784 5783 5782 5779 5776 5773 5768 5766 5766 5762 5756 5752 5746 5742 5739 5736 5732 5731 5729 5727 5725 5722 5721 5720 5718 5717 5714 5713 5711 5709 5708 5707 5705 5704 5703 5703 5702 5700 5699 5699 5698 5698 5697 5696 5696 5695 5694 5693 5692 5691 5692 5690 5686 5683 5680 5678 5678
5797 5795 5792 5789 5788 5785 5783 5780 5777 5774 5771 5767 5765 5765 5763 5758 5753 5748 5742 5739 5736 5732 5729 5727 5725 5724 5722 5720 5719 5716 5715 5713 5711 5709 5707 5705 5704 5704 5702 5701 5700 5699 5698 5697 5696 5695 5694 5693 5692 5691 5690 5690 5689 5689 5687 5686 5685 5684 5681 5678 5674 5672 5672
5795 5793 5790 5786 5784 5782 5779 5776 5774 5771 5767 5765 5764 5763 5761 5756 5750 5743 5739 5736 5732 5728 5726 5725 5723 5722 5719 5717 5715 5713 5711 5710 5708 5705 5704 5702 5701 5700 5698 5698 5697 5695 5694 5692 5691 5690 5688 5687 5686 5685 5685 5685 5684 5683 5682 5681 5679 5678 5676 5673 5669 5667 5665
5789 5788 5785 5782 5779 5778 5776 5773 5770 5766 5763 5762 5760 5759 5757 5752 5745 5739 5736 5733 5728 5726 5725 5723 5721 5719 5716 5713 5711 5709 5708 5706 5704 5703 5701 5700 5698 5696 5694 5694 5692 5691 5690 5688 5686 5684 5682 5681 5681 5680 5679 5680 5679 5678 5677 5676 5674 5672 5670 5667 5665 5662 5659
5783 5780 5778 5777 5775 5774 5773 5768 5764 5761 5758 5757 5755 5753 5751 5745 5738 5735 5732 5727 5726 5726 5723 5720 5718 5715 5712 5710 5707 5705 5704 5702 5701 5700 5698 5696 5695 5692 5690 5689 5687 5685 5684 5682 5680 5679 5678 5677 5677 5676 5675 5674 5674 5673 5673 5671 5669 5667 5664 5662 5659 5656 5654
5778 5776 5775 5774 5771 5771 5768 5763 5759 5756 5753 5751 5749 5746 5743 5738 5732 5729 5726 5722 5723 5723 5719 5717 5714 5711 5709 5706 5704 5702 5701 5699 5697 5696 5694 5692 5691 5688 5686 5684 5682 5680 5679 5678 5676 5673 5672 5672 5672 5671 5670 5669 5668 5668 5667 5666 5664 5662 5659 5657 5654 5652 5650
5775 5773 5772 5770 5766 5764 5762 5757 5754 5750 5745 5744 5741 5738 5736 5733 5728 5723 5720 5719 5719 5717 5714 5713 5709 5707 5704 5703 5701 5700 5698 5696 5694 5692 5691 5690 5687 5685 5683 5681 5679 5677 5675 5674 5671 5669 5667 5667 5666 5666 5665 5663 5663 5662 5661 5661 5659 5656 5655 5653 5650 5648 5645
5770 5768 5766 5763 5759 5757 5755 5751 5747 5742 5737 5735 5734 5732 5730 5727 5724 5719 5716 5716 5716 5713 5710 5708 5705 5702 5701 5699 5698 5697 5694 5692 5691 5690 5689 5688 5685 5684 5682 5680 5677 5674 5671 5669 5668 5665 5663 5662 5660 5659 5658 5657 5656 5655 5654 5654 5652 5651 5650 5648 5645 5642 5640
5762 5760 5758 5755 5753 5751 5748 5745 5740 5735 5731 5728 5728 5727 5725 5722 5719 5717 5714 5713 5713 5710 5707 5704 5701 5699 5698 5697 5695 5694 5690 5688 5687 5685 5685 5684 5682 5681 5680 5677 5673 5670 5667 5665 5663 5660 5658 5656 5654 5653 5652 5651 5651 5650 5649 5648 5647 5646 5644 5640 5637 5635 5634
5753 5751 5749 5748 5746 5744 5742 5738 5734 5729 5725 5723 5723 5722 5720 5717 5715 5713 5711 5710 5709 5706 5703 5700 5698 5696 5696 5694 5692 5689 5687 5685 5683 5682 5681 5680 5678 5676 5674 5672 5668 5665 5662 5660 5657 5655 5652 5649 5648 5647 5646 5646 5645 5644 5643 5642 5642 5641 5637 5632 5629 5627 5626
5747 5744 5742 5740 5739 5737 5734 5731 5728 5724 5721 5719 5718 5717 5715 5713 5711 5710 5708 5706 5704 5702 5698 5696 5694 5693 5692 5692 5689 5686 5684 5682 5681 5680 5678 5675 5673 5672 5670 5667 5664 5660 5658 5656 5654 5650 5646 5643 5642 5642 5642 5641 5640 5638 5636 5636 5636 5635 5630 5626 5623 5621 5619
5740 5738 5737 5735 5733 5731 5728 5725 5723 5720 5716 5715 5715 5713 5710 5709 5707 5706 5704 5702 5700 5697 5694 5691 5690 5689 5688 5688 5685 5682 5679 5677 5676 5676 5673 5670 5670 5668 5666 5664 5661 5656 5654 5653 5650 5646 5641 5638 5637 5636 5635 5634 5633 5632 5630 5628 5628 5627 5623 5620 5618 5615 5614
5735 5733 5731 5729 5727 5725 5722 5720 5718 5715 5713 5712 5711 5709 5707 5705 5703 5701 5700 5698 5696 5693 5690 5687 5685 5683 5683 5682 5680 5676 5673 5672 5672 5670 5667 5666 5666 5663 5659 5657 5657 5655 5653 5650 5647 5643 5639 5635 5633 5630 5627 5625 5624 5625 5624 5622 5620 5619 5617 5615 5614 5612 5610
5732 5729 5727 5725 5723 5720 5717 5716 5714 5712 5710 5709 5708 5706 5704 5701 5699 5698 5697 5695 5692 5689 5687 5684 5681 5678 5677 5676 5674 5671 5669 5668 5667 5665 5663 5662 5661 5656 5652 5651 5651 5652 5651 5648 5644 5641 5637 5633 5630 5627 5624 5621 5618 5617 5617 5617 5617 5615 5612 5611 5609 5608 5607